TimeCST,TemperatureF,Dew PointF,Humidity,Sea Level PressureIn,VisibilityMPH,Wind Direction,Wind SpeedMPH,Gust SpeedMPH,PrecipitationIn,Events,Conditions,WindDirDegrees,DateUTC
12:15 AM,19.4,17.6,93,30.18,4.0,ENE,3.5,-,N/A,,Clear,60,2013-12-09 06:15:00
12:35 AM,17.6,17.6,100,30.18,4.0,NW,3.5,-,N/A,,Clear,310,2013-12-09 06:35:00
12:55 AM,14.0,14.0,100,30.19,4.0,Calm,Calm,-,N/A,,Clear,0,2013-12-09 06:55:00
1:15 AM,17.6,15.8,93,30.20,4.0,NW,4.6,-,N/A,,Mostly Cloudy,310,2013-12-09 07:15:00
1:35 AM,17.6,17.6,100,30.19,5.0,North,4.6,-,N/A,,Overcast,10,2013-12-09 07:35:00
1:55 AM,19.4,19.4,100,30.19,5.0,North,5.8,-,N/A,,Overcast,10,2013-12-09 07:55:00
2:15 AM,19.4,19.4,100,30.20,5.0,North,5.8,-,N/A,,Overcast,10,2013-12-09 08:15:00
2:35 AM,19.4,19.4,100,30.21,7.0,North,4.6,-,N/A,,Overcast,10,2013-12-09 08:35:00
2:55 AM,19.4,19.4,100,30.21,5.0,Calm,Calm,-,N/A,,Scattered Clouds,0,2013-12-09 08:55:00
3:15 AM,17.6,15.8,93,30.21,5.0,North,6.9,-,N/A,,Clear,10,2013-12-09 09:15:00
3:35 AM,17.6,17.6,100,30.21,7.0,North,6.9,-,N/A,,Clear,360,2013-12-09 09:35:00
3:55 AM,19.4,19.4,100,30.21,7.0,North,6.9,-,N/A,,Clear,360,2013-12-09 09:55:00
4:35 AM,19.4,19.4,100,30.21,5.0,North,9.2,-,N/A,,Clear,10,2013-12-09 10:35:00
4:55 AM,19.4,19.4,100,30.22,5.0,North,6.9,-,N/A,,Clear,10,2013-12-09 10:55:00
5:15 AM,19.4,19.4,100,30.24,5.0,North,4.6,-,N/A,,Clear,10,2013-12-09 11:15:00
5:35 AM,21.2,19.4,93,30.23,5.0,North,11.5,-,N/A,,Mostly Cloudy,360,2013-12-09 11:35:00
5:55 AM,24.8,23.0,93,30.25,7.0,North,13.8,-,N/A,,Overcast,360,2013-12-09 11:55:00
6:15 AM,24.8,23.0,93,30.26,7.0,North,13.8,-,N/A,,Overcast,360,2013-12-09 12:15:00
6:35 AM,24.8,23.0,93,30.26,10.0,North,13.8,-,N/A,,Overcast,10,2013-12-09 12:35:00
6:55 AM,24.8,21.2,86,30.27,10.0,NNE,13.8,-,N/A,,Overcast,20,2013-12-09 12:55:00
7:15 AM,24.8,21.2,86,30.27,10.0,NNE,11.5,-,N/A,,Overcast,20,2013-12-09 13:15:00
7:35 AM,23.0,21.2,93,30.28,10.0,NNE,12.7,18.4,N/A,,Overcast,20,2013-12-09 13:35:00
7:55 AM,23.0,19.4,86,30.30,10.0,NNE,13.8,-,N/A,,Overcast,20,2013-12-09 13:55:00
8:15 AM,23.0,19.4,86,30.30,10.0,NNE,12.7,-,N/A,,Mostly Cloudy,30,2013-12-09 14:15:00
8:35 AM,23.0,19.4,86,30.31,10.0,NNE,13.8,-,N/A,,Scattered Clouds,20,2013-12-09 14:35:00
8:55 AM,23.0,19.4,86,30.31,10.0,North,11.5,-,N/A,,Clear,10,2013-12-09 14:55:00
9:15 AM,23.0,19.4,86,30.31,10.0,NNE,12.7,-,N/A,,Clear,20,2013-12-09 15:15:00
9:35 AM,23.0,19.4,86,30.31,10.0,NNE,13.8,-,N/A,,Clear,20,2013-12-09 15:35:00
9:55 AM,23.0,19.4,86,30.32,10.0,NNE,15.0,-,N/A,,Clear,30,2013-12-09 15:55:00
10:15 AM,24.8,19.4,80,30.33,10.0,NNE,16.1,-,N/A,,Clear,20,2013-12-09 16:15:00
10:35 AM,23.0,17.6,80,30.33,10.0,NNE,15.0,20.7,N/A,,Clear,30,2013-12-09 16:35:00
10:55 AM,24.8,19.4,80,30.33,10.0,NNE,15.0,-,N/A,,Clear,20,2013-12-09 16:55:00
11:15 AM,24.8,19.4,80,30.31,10.0,NNE,16.1,-,N/A,,Clear,20,2013-12-09 17:15:00
11:35 AM,24.8,19.4,80,30.31,10.0,NNE,17.3,-,N/A,,Clear,20,2013-12-09 17:35:00
11:55 AM,24.8,19.4,80,30.29,10.0,North,16.1,-,N/A,,Clear,10,2013-12-09 17:55:00
12:15 PM,24.8,19.4,80,30.29,10.0,NNE,18.4,-,N/A,,Clear,20,2013-12-09 18:15:00
12:35 PM,24.8,17.6,74,30.28,10.0,NNE,16.1,-,N/A,,Clear,20,2013-12-09 18:35:00
12:55 PM,24.8,19.4,80,30.27,10.0,North,16.1,-,N/A,,Clear,10,2013-12-09 18:55:00
1:15 PM,24.8,17.6,74,30.27,10.0,NNE,15.0,-,N/A,,Scattered Clouds,20,2013-12-09 19:15:00
1:35 PM,24.8,17.6,74,30.28,10.0,North,13.8,-,N/A,,Mostly Cloudy,10,2013-12-09 19:35:00
1:55 PM,24.8,17.6,74,30.29,10.0,North,13.8,-,N/A,,Overcast,10,2013-12-09 19:55:00
2:15 PM,24.8,17.6,74,30.28,10.0,North,13.8,-,N/A,,Mostly Cloudy,10,2013-12-09 20:15:00
2:35 PM,24.8,17.6,74,30.28,10.0,North,13.8,-,N/A,,Mostly Cloudy,10,2013-12-09 20:35:00
2:55 PM,24.8,19.4,80,30.28,10.0,North,13.8,-,N/A,,Mostly Cloudy,10,2013-12-09 20:55:00
3:15 PM,23.0,17.6,80,30.27,10.0,North,13.8,-,N/A,,Scattered Clouds,360,2013-12-09 21:15:00
3:35 PM,23.0,17.6,80,30.27,10.0,North,15.0,-,N/A,,Clear,10,2013-12-09 21:35:00
3:55 PM,23.0,17.6,80,30.28,10.0,North,12.7,-,N/A,,Scattered Clouds,10,2013-12-09 21:55:00
4:15 PM,23.0,17.6,80,30.29,10.0,North,13.8,-,N/A,,Mostly Cloudy,10,2013-12-09 22:15:00
4:35 PM,23.0,17.6,80,30.30,10.0,North,13.8,-,N/A,,Overcast,360,2013-12-09 22:35:00
4:55 PM,23.0,17.6,80,30.30,10.0,North,16.1,-,N/A,,Overcast,350,2013-12-09 22:55:00
5:15 PM,23.0,17.6,80,30.31,10.0,North,13.8,-,N/A,,Overcast,360,2013-12-09 23:15:00
5:35 PM,23.0,17.6,80,30.31,10.0,North,15.0,-,N/A,,Overcast,360,2013-12-09 23:35:00
5:55 PM,23.0,17.6,80,30.32,10.0,North,10.4,-,N/A,,Overcast,10,2013-12-09 23:55:00
6:15 PM,23.0,17.6,80,30.33,10.0,North,12.7,-,N/A,,Overcast,10,2013-12-10 00:15:00
6:35 PM,23.0,17.6,80,30.32,10.0,NNE,9.2,-,N/A,,Overcast,20,2013-12-10 00:35:00
6:55 PM,21.2,17.6,86,30.34,10.0,North,12.7,-,N/A,,Overcast,350,2013-12-10 00:55:00
7:15 PM,21.2,15.8,80,30.35,10.0,North,11.5,-,N/A,,Overcast,350,2013-12-10 01:15:00
7:35 PM,21.2,15.8,80,30.36,10.0,North,10.4,-,N/A,,Overcast,350,2013-12-10 01:35:00
7:55 PM,21.2,14.0,74,30.37,10.0,NNW,10.4,-,N/A,,Overcast,340,2013-12-10 01:55:00
8:15 PM,21.2,14.0,74,30.37,10.0,North,6.9,-,N/A,,Mostly Cloudy,350,2013-12-10 02:15:00
8:35 PM,19.4,14.0,80,30.39,10.0,NNW,4.6,-,N/A,,Mostly Cloudy,330,2013-12-10 02:35:00
8:55 PM,19.4,14.0,80,30.39,10.0,NW,5.8,-,N/A,,Mostly Cloudy,320,2013-12-10 02:55:00
9:15 PM,17.6,12.2,79,30.40,10.0,NW,8.1,-,N/A,,Scattered Clouds,320,2013-12-10 03:15:00
9:35 PM,17.6,12.2,79,30.41,10.0,NW,6.9,-,N/A,,Clear,320,2013-12-10 03:35:00
9:55 PM,14.0,10.4,86,30.40,10.0,NNW,5.8,-,N/A,,Clear,330,2013-12-10 03:55:00
10:15 PM,14.0,10.4,86,30.42,10.0,NNW,8.1,-,N/A,,Clear,340,2013-12-10 04:15:00
10:35 PM,14.0,10.4,86,30.41,10.0,NNW,5.8,-,N/A,,Clear,340,2013-12-10 04:35:00
10:55 PM,10.4,6.8,85,30.41,10.0,North,5.8,-,N/A,,Clear,360,2013-12-10 04:55:00
11:15 PM,12.2,8.6,85,30.42,10.0,NW,4.6,-,N/A,,Clear,320,2013-12-10 05:15:00
11:35 PM,12.2,8.6,85,30.43,10.0,NW,4.6,-,N/A,,Clear,320,2013-12-10 05:35:00
11:55 PM,10.4,8.6,92,30.44,10.0,WNW,3.5,-,N/A,,Clear,300,2013-12-10 05:55:00